When you browse on this site, cookies collect data to enhance your experience and personalize the content and advertising you see.
Visit our Privacy Policy to learn more. By continuing to use the site, you agree to this use of cookies and data.
  • In Germany
  • List of Countries
  • For 7 days
  • Water Temperature
  • Satellite Maps
  • Weather Map
  • Weather Widgets
  • user-avatar
    Login

    Hourly Weather Gaborone

    Today, 23 January, Wednesday

    Time Temperature Precipitation Wind Pressure Humidity
    00:00 +28°C° 0 mm 1 mps 676 mmHg 25%
    01:00 +27°C° 0 mm 1 mps 675 mmHg 26%
    02:00 +25°C° 0 mm 0 mps 675 mmHg 25%
    03:00 +25°C° 0 mm 0 mps 675 mmHg 26%
    04:00 +24°C° 0 mm 0 mps 675 mmHg 27%
    05:00 +24°C° 0 mm 0 mps 675 mmHg 28%
    06:00 +27°C° 0 mm 1 mps 676 mmHg 26%
    07:00 +28°C° 0 mm 1 mps 676 mmHg 25%
    08:00 +29°C° 0 mm 1 mps 677 mmHg 24%
    09:00 +32°C° 0 mm 1 mps 677 mmHg 21%
    10:00 +35°C° 0 mm 1 mps 677 mmHg 18%
    11:00 +35°C° 0 mm 0 mps 678 mmHg 16%
    12:00 +37°C° 0 mm 0 mps 677 mmHg 15%
    13:00 +38°C° 0 mm 0 mps 677 mmHg 14%
    14:00 +42°C° 0 mm 1 mps 676 mmHg 13%
    15:00 +41°C° 0 mm 1 mps 676 mmHg 13%
    16:00 +40°C° 0 mm 1 mps 675 mmHg 13%
    17:00 +40°C° 0 mm 1 mps 674 mmHg 13%
    18:00 +39°C° 0 mm 1 mps 674 mmHg 14%
    19:00 +36°C° 0 mm 1 mps 674 mmHg 15%
    20:00 +36°C° 0 mm 2 mps 674 mmHg 17%
    21:00 +35°C° 0 mm 1 mps 674 mmHg 17%
    22:00 +34°C° 0 mm 1 mps 674 mmHg 18%
    23:00 +34°C° 0 mm 1 mps 675 mmHg 19%

    Tomorrow, 24 January, Thursday

    Time Temperature Precipitation Wind Pressure Humidity
    00:00 +33°C° 0 mm 1 mps 674 mmHg 19%
    01:00 +34°C° 0 mm 2 mps 674 mmHg 20%
    02:00 +32°C° 0 mm 2 mps 674 mmHg 20%
    03:00 +31°C° 0 mm 2 mps 674 mmHg 21%
    04:00 +31°C° 0 mm 2 mps 674 mmHg 23%
    05:00 +30°C° 0 mm 3 mps 674 mmHg 24%
    06:00 +30°C° 0 mm 2 mps 674 mmHg 24%
    07:00 +30°C° 0 mm 2 mps 675 mmHg 25%
    08:00 +30°C° 0 mm 2 mps 675 mmHg 26%
    09:00 +33°C° 0 mm 3 mps 676 mmHg 23%
    10:00 +36°C° 0 mm 4 mps 676 mmHg 21%
    11:00 +39°C° 0 mm 5 mps 677 mmHg 19%
    12:00 +40°C° 0 mm 4 mps 676 mmHg 18%
    13:00 +41°C° 0 mm 4 mps 676 mmHg 16%
    14:00 +42°C° 0 mm 3 mps 676 mmHg 15%
    15:00 +42°C° 0 mm 3 mps 675 mmHg 15%
    16:00 +41°C° 0 mm 2 mps 675 mmHg 14%
    17:00 +41°C° 0 mm 2 mps 674 mmHg 14%
    18:00 +39°C° 0 mm 2 mps 674 mmHg 16%
    19:00 +38°C° 0 mm 3 mps 674 mmHg 19%
    20:00 +36°C° 0 mm 3 mps 674 mmHg 21%
    21:00 +35°C° 0 mm 4 mps 674 mmHg 25%
    22:00 +34°C° 0 mm 5 mps 675 mmHg 28%
    23:00 +33°C° 0 mm 6 mps 675 mmHg 32%

    Day after tomorrow, 25 January, Friday

    Time Temperature Precipitation Wind Pressure Humidity
    00:00 +32°C° 0 mm 5 mps 675 mmHg 34%
    01:00 +30°C° 0 mm 5 mps 675 mmHg 36%
    02:00 +29°C° 0 mm 4 mps 675 mmHg 38%
    03:00 +29°C° 0 mm 5 mps 675 mmHg 38%
    04:00 +28°C° 0 mm 5 mps 676 mmHg 39%
    05:00 +28°C° 0 mm 5 mps 676 mmHg 39%
    06:00 +28°C° 0 mm 5 mps 676 mmHg 42%
    07:00 +28°C° 0 mm 6 mps 677 mmHg 46%
    08:00 +28°C° 0 mm 6 mps 677 mmHg 49%
    09:00 +30°C° 0 mm 6 mps 678 mmHg 46%
    10:00 +32°C° 0 mm 6 mps 678 mmHg 42%
    11:00 +34°C° 0 mm 6 mps 678 mmHg 39%
    12:00 +36°C° 0 mm 6 mps 678 mmHg 35%
    13:00 +38°C° 0 mm 6 mps 677 mmHg 30%
    14:00 +40°C° 0 mm 5 mps 677 mmHg 26%
    15:00 +40°C° 0 mm 5 mps 676 mmHg 25%
    16:00 +40°C° 0 mm 5 mps 676 mmHg 23%
    17:00 +40°C° 0 mm 4 mps 675 mmHg 22%
    18:00 +37°C° 0.1 mm 5 mps 675 mmHg 27%
    19:00 +35°C° 0.1 mm 5 mps 675 mmHg 31%
    20:00 +33°C° 0.1 mm 6 mps 675 mmHg 36%
    21:00 +32°C° 0.2 mm 5 mps 676 mmHg 42%
    22:00 +30°C° 0.2 mm 4 mps 676 mmHg 47%
    23:00 +28°C° 0.2 mm 3 mps 676 mmHg 53%

    26 January, Saturday

    Time Temperature Precipitation Wind Pressure Humidity
    00:00 +28°C° 0 mm 3 mps 676 mmHg 54%
    01:00 +27°C° 0 mm 4 mps 675 mmHg 56%
    02:00 +26°C° 0 mm 4 mps 675 mmHg 58%
    03:00 +26°C° 0 mm 4 mps 675 mmHg 56%
    04:00 +26°C° 0 mm 4 mps 675 mmHg 53%
    05:00 +27°C° 0 mm 4 mps 676 mmHg 51%
    06:00 +27°C° 0 mm 5 mps 676 mmHg 50%
    07:00 +27°C° 0 mm 5 mps 677 mmHg 49%
    08:00 +28°C° 0 mm 5 mps 677 mmHg 48%
    09:00 +30°C° 0 mm 5 mps 678 mmHg 43%
    10:00 +33°C° 0 mm 5 mps 678 mmHg 38%
    11:00 +35°C° 0 mm 6 mps 678 mmHg 33%
    12:00 +37°C° 0 mm 5 mps 678 mmHg 29%
    13:00 +39°C° 0 mm 5 mps 677 mmHg 25%
    14:00 +41°C° 0 mm 5 mps 677 mmHg 21%
    15:00 +41°C° 0 mm 5 mps 676 mmHg 20%
    16:00 +41°C° 0 mm 5 mps 675 mmHg 20%
    17:00 +41°C° 0 mm 5 mps 675 mmHg 19%
    18:00 +38°C° 0.2 mm 4 mps 675 mmHg 23%
    19:00 +36°C° 0.2 mm 2 mps 675 mmHg 27%
    20:00 +33°C° 0.2 mm 1 mps 675 mmHg 32%
    21:00 +31°C° 0 mm 2 mps 675 mmHg 39%
    22:00 +30°C° 0 mm 3 mps 675 mmHg 46%
    23:00 +28°C° 0 mm 4 mps 675 mmHg 53%

    27 January, Sunday

    Time Temperature Precipitation Wind Pressure Humidity
    00:00 +27°C° 0.1 mm 4 mps 675 mmHg 55%
    01:00 +27°C° 0.1 mm 3 mps 675 mmHg 56%
    02:00 +26°C° 0.1 mm 2 mps 675 mmHg 58%
    03:00 +25°C° 0.3 mm 3 mps 675 mmHg 61%
    04:00 +25°C° 0.3 mm 4 mps 675 mmHg 65%
    05:00 +23°C° 0.3 mm 4 mps 676 mmHg 68%
    06:00 +25°C° 0.1 mm 5 mps 676 mmHg 67%
    07:00 +24°C° 0.1 mm 6 mps 677 mmHg 66%
    08:00 +26°C° 0.1 mm 7 mps 677 mmHg 65%
    09:00 +28°C° 0 mm 6 mps 677 mmHg 58%
    10:00 +30°C° 0 mm 6 mps 677 mmHg 51%
    11:00 +33°C° 0 mm 6 mps 677 mmHg 45%
    12:00 +34°C° 0 mm 5 mps 677 mmHg 41%
    13:00 +35°C° 0 mm 5 mps 676 mmHg 38%
    14:00 +36°C° 0 mm 4 mps 676 mmHg 35%
    15:00 +36°C° 0 mm 4 mps 676 mmHg 35%
    16:00 +36°C° 0 mm 4 mps 675 mmHg 35%
    17:00 +36°C° 0 mm 5 mps 675 mmHg 36%
    18:00 +34°C° 0.2 mm 5 mps 675 mmHg 41%
    19:00 +33°C° 0.2 mm 5 mps 675 mmHg 47%
    20:00 +30°C° 0.2 mm 5 mps 675 mmHg 52%
    21:00 +29°C° 0.6 mm 5 mps 675 mmHg 57%
    22:00 +27°C° 0.6 mm 5 mps 676 mmHg 62%
    23:00 +26°C° 0.6 mm 6 mps 676 mmHg 67%

    28 January, Monday

    Time Temperature Precipitation Wind Pressure Humidity
    00:00 +24°C° 0.7 mm 6 mps 676 mmHg 71%
    01:00 +23°C° 0.7 mm 6 mps 676 mmHg 75%
    02:00 +22°C° 0.7 mm 6 mps 676 mmHg 79%
    03:00 +22°C° 0 mm 6 mps 677 mmHg 79%
    04:00 +21°C° 0 mm 6 mps 677 mmHg 79%
    05:00 +21°C° 0 mm 6 mps 677 mmHg 79%
    06:00 +21°C° 0 mm 6 mps 678 mmHg 78%
    07:00 +21°C° 0 mm 6 mps 678 mmHg 78%
    08:00 +21°C° 0 mm 5 mps 679 mmHg 77%
    09:00 +21°C° 0 mm 5 mps 679 mmHg 74%
    10:00 +22°C° 0 mm 5 mps 679 mmHg 70%
    11:00 +23°C° 0 mm 4 mps 679 mmHg 67%
    12:00 +27°C° 0 mm 5 mps 679 mmHg 58%
    13:00 +29°C° 0 mm 5 mps 679 mmHg 49%
    14:00 +33°C° 0 mm 5 mps 678 mmHg 40%
    15:00 +33°C° 0 mm 4 mps 678 mmHg 39%
    16:00 +34°C° 0 mm 4 mps 677 mmHg 37%
    17:00 +34°C° 0 mm 4 mps 677 mmHg 36%
    18:00 +32°C° 0 mm 4 mps 677 mmHg 40%
    19:00 +30°C° 0 mm 4 mps 677 mmHg 45%
    20:00 +28°C° 0 mm 4 mps 677 mmHg 49%
    21:00 +28°C° 0 mm 4 mps 677 mmHg 50%
    22:00 +27°C° 0 mm 4 mps 677 mmHg 52%
    23:00 +27°C° 0 mm 5 mps 678 mmHg 54%
    Show more